Hourly Weather Abadiania

Today, 19 June, Saturday

Time Temperature Precipitation Wind Pressure Humidity
00:00 +16°C° 0 mm 1 mps 678 mmHg 53%
01:00 +16°C° 0 mm 1 mps 678 mmHg 53%
02:00 +16°C° 0 mm 1 mps 678 mmHg 54%
03:00 +16°C° 0 mm 1 mps 678 mmHg 54%
04:00 +15°C° 0 mm 1 mps 678 mmHg 55%
05:00 +15°C° 0 mm 1 mps 678 mmHg 57%
06:00 +15°C° 0 mm 1 mps 678 mmHg 58%
07:00 +17°C° 0 mm 2 mps 679 mmHg 53%
08:00 +19°C° 0 mm 3 mps 680 mmHg 48%
09:00 +22°C° 0 mm 3 mps 681 mmHg 44%
10:00 +24°C° 0 mm 3 mps 681 mmHg 40%
11:00 +26°C° 0 mm 2 mps 681 mmHg 37%
12:00 +28°C° 0 mm 2 mps 681 mmHg 34%
13:00 +29°C° 0 mm 2 mps 680 mmHg 32%
14:00 +29°C° 0 mm 2 mps 680 mmHg 31%
15:00 +30°C° 0 mm 1 mps 679 mmHg 29%
16:00 +27°C° 0 mm 1 mps 679 mmHg 35%
17:00 +25°C° 0 mm 1 mps 678 mmHg 41%
18:00 +23°C° 0 mm 1 mps 678 mmHg 47%
19:00 +22°C° 0 mm 1 mps 678 mmHg 49%
20:00 +21°C° 0 mm 1 mps 679 mmHg 52%
21:00 +18°C° 0 mm 0 mps 679 mmHg 54%
22:00 +20°C° 0 mm 1 mps 679 mmHg 56%
23:00 +19°C° 0 mm 1 mps 679 mmHg 57%

Tomorrow, 20 June, Sunday

Time Temperature Precipitation Wind Pressure Humidity
00:00 +19°C° 0 mm 1 mps 679 mmHg 59%
01:00 +19°C° 0 mm 1 mps 678 mmHg 58%
02:00 +20°C° 0 mm 1 mps 678 mmHg 58%
03:00 +20°C° 0 mm 1 mps 678 mmHg 57%
04:00 +20°C° 0 mm 1 mps 678 mmHg 57%
05:00 +20°C° 0 mm 1 mps 678 mmHg 56%
06:00 +20°C° 0 mm 1 mps 678 mmHg 56%
07:00 +21°C° 0 mm 1 mps 679 mmHg 53%
08:00 +23°C° 0 mm 1 mps 679 mmHg 50%
09:00 +24°C° 0 mm 1 mps 680 mmHg 47%
10:00 +26°C° 0 mm 1 mps 680 mmHg 41%
11:00 +28°C° 0 mm 1 mps 680 mmHg 36%
12:00 +30°C° 0 mm 1 mps 680 mmHg 31%
13:00 +30°C° 0 mm 1 mps 680 mmHg 30%
14:00 +30°C° 0 mm 1 mps 679 mmHg 29%
15:00 +31°C° 0 mm 2 mps 678 mmHg 28%
16:00 +28°C° 0 mm 1 mps 678 mmHg 33%
17:00 +26°C° 0 mm 1 mps 678 mmHg 39%
18:00 +24°C° 0 mm 1 mps 677 mmHg 44%
19:00 +23°C° 0 mm 1 mps 678 mmHg 46%
20:00 +20°C° 0 mm 0 mps 678 mmHg 48%
21:00 +20°C° 0 mm 0 mps 678 mmHg 51%
22:00 +19°C° 0 mm 0 mps 678 mmHg 52%
23:00 +21°C° 0 mm 1 mps 678 mmHg 53%

Day after tomorrow, 21 June, Monday

Time Temperature Precipitation Wind Pressure Humidity
00:00 +20°C° 0 mm 1 mps 678 mmHg 54%
01:00 +20°C° 0 mm 1 mps 678 mmHg 56%
02:00 +19°C° 0 mm 1 mps 678 mmHg 57%
03:00 +19°C° 0 mm 1 mps 677 mmHg 59%
04:00 +18°C° 0 mm 1 mps 677 mmHg 60%
05:00 +18°C° 0 mm 1 mps 677 mmHg 61%
06:00 +18°C° 0 mm 1 mps 677 mmHg 62%
07:00 +20°C° 0 mm 1 mps 678 mmHg 57%
08:00 +22°C° 0 mm 1 mps 679 mmHg 51%
09:00 +24°C° 0 mm 2 mps 680 mmHg 45%
10:00 +26°C° 0 mm 2 mps 680 mmHg 40%
11:00 +28°C° 0 mm 2 mps 680 mmHg 35%
12:00 +30°C° 0 mm 2 mps 680 mmHg 30%
13:00 +31°C° 0 mm 2 mps 680 mmHg 29%
14:00 +31°C° 0 mm 2 mps 679 mmHg 28%
15:00 +31°C° 0 mm 1 mps 679 mmHg 26%
16:00 +29°C° 0 mm 1 mps 678 mmHg 31%
17:00 +27°C° 0 mm 1 mps 678 mmHg 36%
18:00 +25°C° 0 mm 1 mps 677 mmHg 41%
19:00 +24°C° 0 mm 1 mps 678 mmHg 43%
20:00 +23°C° 0 mm 1 mps 678 mmHg 45%
21:00 +22°C° 0 mm 1 mps 678 mmHg 48%
22:00 +22°C° 0 mm 1 mps 678 mmHg 49%
23:00 +21°C° 0 mm 1 mps 678 mmHg 50%

22 June, Tuesday

Time Temperature Precipitation Wind Pressure Humidity
00:00 +21°C° 0 mm 1 mps 678 mmHg 52%
01:00 +20°C° 0 mm 1 mps 678 mmHg 53%
02:00 +20°C° 0 mm 1 mps 678 mmHg 54%
03:00 +20°C° 0 mm 1 mps 677 mmHg 55%
04:00 +19°C° 0 mm 1 mps 677 mmHg 56%
05:00 +19°C° 0 mm 1 mps 677 mmHg 57%
06:00 +19°C° 0 mm 1 mps 678 mmHg 57%
07:00 +21°C° 0 mm 1 mps 678 mmHg 51%
08:00 +23°C° 0 mm 1 mps 679 mmHg 45%
09:00 +26°C° 0 mm 1 mps 680 mmHg 39%
10:00 +28°C° 0 mm 1 mps 680 mmHg 35%
11:00 +30°C° 0 mm 2 mps 680 mmHg 31%
12:00 +31°C° 0 mm 2 mps 680 mmHg 26%
13:00 +32°C° 0 mm 2 mps 680 mmHg 26%
14:00 +32°C° 0 mm 2 mps 679 mmHg 25%
15:00 +32°C° 0 mm 2 mps 678 mmHg 24%
16:00 +30°C° 0 mm 2 mps 678 mmHg 29%
17:00 +27°C° 0 mm 1 mps 677 mmHg 33%
18:00 +25°C° 0 mm 1 mps 677 mmHg 38%
19:00 +24°C° 0 mm 1 mps 677 mmHg 39%
20:00 +23°C° 0 mm 1 mps 678 mmHg 41%
21:00 +23°C° 0 mm 1 mps 678 mmHg 42%
22:00 +22°C° 0 mm 1 mps 678 mmHg 43%
23:00 +21°C° 0 mm 1 mps 678 mmHg 44%

23 June, Wednesday

Time Temperature Precipitation Wind Pressure Humidity
00:00 +21°C° 0 mm 1 mps 677 mmHg 46%
01:00 +20°C° 0 mm 1 mps 677 mmHg 46%
02:00 +20°C° 0 mm 1 mps 677 mmHg 47%
03:00 +20°C° 0 mm 1 mps 677 mmHg 48%
04:00 +19°C° 0 mm 1 mps 677 mmHg 48%
05:00 +19°C° 0 mm 1 mps 677 mmHg 49%
06:00 +19°C° 0 mm 1 mps 677 mmHg 49%
07:00 +21°C° 0 mm 1 mps 678 mmHg 45%
08:00 +24°C° 0 mm 2 mps 679 mmHg 40%
09:00 +26°C° 0 mm 3 mps 680 mmHg 35%
10:00 +28°C° 0 mm 3 mps 680 mmHg 32%
11:00 +29°C° 0 mm 3 mps 680 mmHg 29%
12:00 +31°C° 0 mm 3 mps 680 mmHg 25%
13:00 +31°C° 0 mm 3 mps 679 mmHg 24%
14:00 +33°C° 0 mm 3 mps 679 mmHg 24%
15:00 +33°C° 0 mm 3 mps 678 mmHg 23%
16:00 +30°C° 0 mm 2 mps 678 mmHg 27%
17:00 +27°C° 0 mm 2 mps 677 mmHg 32%
18:00 +25°C° 0 mm 2 mps 677 mmHg 37%
19:00 +24°C° 0 mm 2 mps 677 mmHg 39%
20:00 +23°C° 0 mm 2 mps 677 mmHg 42%
21:00 +22°C° 0 mm 1 mps 678 mmHg 44%
22:00 +20°C° 0 mm 2 mps 677 mmHg 45%
23:00 +20°C° 0 mm 2 mps 677 mmHg 46%

24 June, Thursday

Time Temperature Precipitation Wind Pressure Humidity
00:00 +19°C° 0 mm 2 mps 677 mmHg 48%
01:00 +19°C° 0 mm 2 mps 677 mmHg 49%
02:00 +20°C° 0 mm 1 mps 677 mmHg 51%
03:00 +20°C° 0 mm 1 mps 676 mmHg 52%
04:00 +18°C° 0 mm 2 mps 677 mmHg 55%
05:00 +18°C° 0 mm 2 mps 677 mmHg 59%
06:00 +18°C° 0 mm 2 mps 677 mmHg 62%
07:00 +20°C° 0 mm 3 mps 678 mmHg 57%
08:00 +22°C° 0 mm 3 mps 678 mmHg 53%
09:00 +25°C° 0 mm 4 mps 679 mmHg 48%
10:00 +27°C° 0 mm 4 mps 679 mmHg 43%
11:00 +29°C° 0 mm 4 mps 679 mmHg 37%
12:00 +30°C° 0 mm 4 mps 679 mmHg 32%
13:00 +31°C° 0 mm 3 mps 679 mmHg 30%
14:00 +31°C° 0 mm 3 mps 678 mmHg 28%
15:00 +31°C° 0 mm 2 mps 678 mmHg 27%
16:00 +29°C° 0 mm 2 mps 677 mmHg 31%
17:00 +27°C° 0 mm 1 mps 677 mmHg 36%
18:00 +25°C° 0 mm 1 mps 677 mmHg 40%
19:00 +24°C° 0 mm 1 mps 677 mmHg 42%
20:00 +23°C° 0 mm 1 mps 677 mmHg 43%
21:00 +20°C° 0 mm 0 mps 678 mmHg 45%
22:00 +22°C° 0 mm 1 mps 677 mmHg 46%
23:00 +21°C° 0 mm 1 mps 677 mmHg 47%
Show more